Location: Nijmegen RU
(51.8233°N, 354.1314°E)
Time: 15:50:29
(UTC+02:00)

Envisat - Pass Details

Date: 03 March 2019
Orbit: 764 x 766 km, 98.1° (Epoch: 19 October)

Event Time Altitude Azimuth Distance (km) Brightness Sun altitude
Rises 21:25:04 0° 214° (SW) 3,221 6.4 -22.0°
Reaches altitude 10° 21:28:16 10° 236° (SW) 2,301 5.9 -22.4°
Maximum altitude 21:31:21 16° 273° (W) 1,916 5.9 -22.9°
Drops below altitude 10° 21:34:28 10° 311° (NW) 2,312 6.4 -23.3°
Sets 21:37:42 0° 333° (NNW) 3,244 7.0 -23.8°
